Date String (YYYY-MM-DD hh:mm:ss) UTC,Instrument flags,absolute air pressure of the measurement (hPa),sample flow rate (lpm),inlet stack bypass flow (lpm),air temperature of the measurement (°C),ambient temperature measured by the external sensor (°C),aerosol sample conditioner tube jacket temperature (°C),OPC LED temperature (°C),internal box temperature (°C),relative humidity of the measurement (%),span deviation,mass concentration of particles derived from Lorenz-Mie calculation of OPC scattering (μg/m³),mass concentration of particles derived from Lorenz-Mie calculation of OPC scattering (μg/m³),mass concentration of particles derived from Lorenz-Mie calculation of OPC scattering (μg/m³)
DateTimeUTC,F1_M11,P_M11,Q1_M11,Q2_M11,T1_M11,T2_M11,T3_M11,T4_M11,T5_M11,U1_M11,ZSPAN_M11,X0_M11,X2_M11,X1_M11
2024-03-04 23:00:00,SystemResetWarning,0821.3,4.99,000.00,021.2,020.6,000.0,029.4,022.9,11.6,0000.0,0009.23,0001.95,0000.89
2024-03-04 23:01:00,SystemResetWarning,0821.1,5.00,000.00,021.2,020.6,000.0,029.4,022.9,11.5,0000.0,0010.26,0001.93,0000.89
2024-03-04 23:02:00,SystemResetWarning,0821.1,5.00,000.00,021.2,020.6,000.0,029.4,022.9,11.5,0000.0,0010.17,0001.92,0000.87
2024-03-04 23:03:00,SystemResetWarning,0821.1,5.00,000.00,021.2,020.6,000.0,029.4,023.0,11.5,0000.0,0010.47,0001.87,0000.86
2024-03-04 23:04:00,SystemResetWarning,0821.0,5.01,000.00,021.2,020.7,000.0,029.4,023.0,11.4,0000.0,0010.53,0001.97,0000.88
2024-03-04 23:05:00,SystemResetWarning,0821.1,5.00,000.00,021.2,020.7,000.0,029.4,023.0,11.5,0000.0,0010.25,0001.99,0000.88
2024-03-04 23:06:00,SystemResetWarning,0821.1,4.99,000.00,021.3,020.7,000.0,029.5,023.0,11.5,0000.0,0010.41,0001.97,0000.89
2024-03-04 23:07:00,SystemResetWarning,0820.9,5.00,000.00,021.3,020.7,000.0,029.5,023.0,11.4,0000.0,0010.18,0002.03,0000.90
2024-03-04 23:08:00,SystemResetWarning,0821.1,5.00,000.00,021.3,020.7,000.0,029.5,023.0,11.4,0000.0,0010.48,0002.13,0000.90
2024-03-04 23:09:00,SystemResetWarning,0820.9,5.01,000.00,021.3,020.8,000.0,029.5,023.0,11.4,0000.0,0011.29,0002.11,0000.88
2024-03-04 23:10:00,SystemResetWarning,0820.9,5.00,000.00,021.3,020.8,000.0,029.5,023.1,11.4,0000.0,0011.76,0002.07,0000.86
2024-03-04 23:11:00,SystemResetWarning,0821.0,5.00,000.00,021.3,020.8,000.0,029.5,023.1,11.5,0000.0,0011.65,0002.05,0000.84
2024-03-04 23:12:00,SystemResetWarning,0821.0,4.99,000.00,021.4,020.8,000.0,029.5,023.1,11.5,0000.0,0010.96,0002.06,0000.82
2024-03-04 23:13:00,SystemResetWarning,0821.0,4.99,000.00,021.4,020.8,000.0,029.6,023.1,11.6,0000.0,0011.13,0002.12,0000.81
2024-03-04 23:14:00,SystemResetWarning,0821.0,5.00,000.00,021.4,020.8,000.0,029.6,023.1,11.5,0000.0,0010.77,0002.08,0000.80
2024-03-04 23:15:00,SystemResetWarning,0821.0,5.01,000.00,021.4,020.9,000.0,029.6,023.2,11.4,0000.0,0010.50,0002.05,0000.79
2024-03-04 23:16:00,SystemResetWarning,0821.2,5.01,000.00,021.4,020.9,000.0,029.6,023.2,11.4,0000.0,0009.68,0002.03,0000.78
2024-03-04 23:17:00,SystemResetWarning,0821.0,4.99,000.00,021.4,020.9,000.0,029.6,023.2,11.5,0000.0,0009.18,0002.01,0000.77
2024-03-04 23:18:00,SystemResetWarning,0820.9,5.00,000.00,021.5,020.9,000.0,029.6,023.2,11.4,0000.0,0009.61,0001.99,0000.76
2024-03-04 23:19:00,SystemResetWarning,0820.9,5.00,000.00,021.5,020.9,000.0,029.6,023.2,11.3,0000.0,0009.75,0001.91,0000.75
2024-03-04 23:20:00,SystemResetWarning,0821.0,4.99,000.00,021.5,020.9,000.0,029.7,023.2,11.3,0000.0,0010.01,0001.90,0000.75
2024-03-04 23:21:00,SystemResetWarning,0821.3,5.00,000.00,021.5,020.9,000.0,029.7,023.2,11.3,0000.0,0009.88,0001.91,0000.76
2024-03-04 23:22:00,SystemResetWarning,0821.1,5.01,000.00,021.5,020.9,000.0,029.7,023.2,11.4,0000.0,0009.86,0001.90,0000.75
2024-03-04 23:23:00,SystemResetWarning,0821.1,5.01,000.00,021.5,020.9,000.0,029.7,023.3,11.4,0000.0,0009.45,0001.84,0000.76
2024-03-04 23:24:00,SystemResetWarning,0821.4,5.00,000.00,021.5,021.0,000.0,029.7,023.3,11.4,0000.0,0009.06,0001.78,0000.76
2024-03-04 23:25:00,SystemResetWarning,0821.2,5.00,000.00,021.6,021.0,000.0,029.8,023.3,11.4,0000.0,0008.74,0001.79,0000.76
2024-03-04 23:26:00,SystemResetWarning,0821.1,4.99,000.00,021.6,021.0,000.0,029.8,023.3,11.3,0000.0,0009.02,0001.77,0000.74
2024-03-04 23:27:00,SystemResetWarning,0821.5,4.99,000.00,021.6,021.0,000.0,029.8,023.3,11.3,0000.0,0010.11,0001.73,0000.74
2024-03-04 23:28:00,SystemResetWarning,0821.1,4.99,000.00,021.6,021.0,000.0,029.8,023.3,11.3,0000.0,0010.95,0001.74,0000.73
2024-03-04 23:29:00,SystemResetWarning,0821.1,5.00,000.00,021.6,021.0,000.0,029.8,023.4,11.2,0000.0,0011.57,0001.71,0000.73
2024-03-04 23:30:00,SystemResetWarning,0821.0,5.00,000.00,021.6,021.0,000.0,029.8,023.4,11.2,0000.0,0012.24,0001.70,0000.73
2024-03-04 23:31:00,SystemResetWarning,0821.3,5.01,000.00,021.6,021.0,000.0,029.9,023.4,11.2,0000.0,0011.36,0001.68,0000.73
2024-03-04 23:32:00,SystemResetWarning,0821.3,5.00,000.00,021.6,021.1,000.0,029.9,023.4,11.2,0000.0,0012.23,0001.68,0000.73
2024-03-04 23:33:00,SystemResetWarning,0821.1,5.01,000.00,021.7,021.1,000.0,029.9,023.4,11.3,0000.0,0012.88,0001.65,0000.73
2024-03-04 23:34:00,SystemResetWarning,0821.1,4.99,000.00,021.7,021.1,000.0,029.9,023.4,11.2,0000.0,0012.55,0001.65,0000.73
2024-03-04 23:35:00,SystemResetWarning,0821.2,4.99,000.00,021.7,021.1,000.0,029.9,023.5,11.1,0000.0,0012.53,0001.69,0000.74
2024-03-04 23:36:00,SystemResetWarning,0821.2,4.99,000.00,021.7,021.1,000.0,029.9,023.5,11.1,0000.0,0012.76,0001.71,0000.75
2024-03-04 23:37:00,SystemResetWarning,0821.2,5.01,000.00,021.7,021.1,000.0,029.9,023.5,11.5,0000.0,0012.88,0001.80,0000.76
2024-03-04 23:38:00,SystemResetWarning,0821.2,5.01,000.00,021.7,021.1,000.0,029.9,023.5,12.7,0000.0,0012.61,0001.79,0000.77
2024-03-04 23:39:00,SystemResetWarning,0821.2,5.01,000.00,021.7,021.2,000.0,030.0,023.5,13.3,0000.0,0012.03,0001.85,0000.78
2024-03-04 23:40:00,SystemResetWarning,0821.2,5.00,000.00,021.7,021.2,000.0,030.0,023.5,13.1,0000.0,0011.33,0001.91,0000.78
2024-03-04 23:41:00,SystemResetWarning,0821.2,4.99,000.00,021.8,021.2,000.0,030.0,023.5,13.1,0000.0,0011.09,0001.98,0000.79
2024-03-04 23:42:00,SystemResetWarning,0821.2,4.99,000.00,021.8,021.2,000.0,030.0,023.6,13.3,0000.0,0011.64,0001.97,0000.78
2024-03-04 23:43:00,SystemResetWarning,0821.2,4.99,000.00,021.8,021.2,000.0,030.0,023.6,13.8,0000.0,0011.09,0001.97,0000.78
2024-03-04 23:44:00,SystemResetWarning,0821.0,5.01,000.00,021.8,021.2,000.0,030.0,023.6,13.9,0000.0,0010.13,0002.02,0000.78
2024-03-04 23:45:00,SystemResetWarning,0821.3,5.01,000.00,021.8,021.2,000.0,030.1,023.6,13.8,0000.0,0010.81,0002.13,0000.79
2024-03-04 23:46:00,SystemResetWarning,0821.1,5.00,000.00,021.8,021.2,000.0,030.1,023.6,13.8,0000.0,0010.78,0002.10,0000.80
2024-03-04 23:47:00,SystemResetWarning,0821.2,5.00,000.00,021.9,021.3,000.0,030.1,023.6,13.9,0000.0,0010.60,0002.08,0000.80
2024-03-04 23:48:00,SystemResetWarning,0821.4,5.00,000.00,021.9,021.3,000.0,030.1,023.6,13.9,0000.0,0010.61,0002.03,0000.79
2024-03-04 23:49:00,SystemResetWarning,0821.4,5.00,000.00,021.9,021.3,000.0,030.1,023.6,13.9,0000.0,0010.34,0002.02,0000.80
2024-03-04 23:50:00,SystemResetWarning,0821.5,5.00,000.00,021.9,021.3,000.0,030.1,023.7,13.8,0000.0,0010.36,0002.06,0000.81
2024-03-04 23:51:00,SystemResetWarning,0821.4,5.00,000.00,021.9,021.3,000.0,030.1,023.7,13.8,0000.0,0010.58,0002.05,0000.81
2024-03-04 23:52:00,SystemResetWarning,0821.3,4.99,000.00,021.9,021.3,000.0,030.1,023.7,13.8,0000.0,0010.46,0002.02,0000.81
2024-03-04 23:53:00,SystemResetWarning,0821.3,4.99,000.00,021.9,021.3,000.0,030.2,023.7,13.9,0000.0,0010.29,0002.09,0000.83
2024-03-04 23:54:00,SystemResetWarning,0821.3,5.00,000.00,021.9,021.3,000.0,030.2,023.8,13.8,0000.0,0010.93,0002.11,0000.87
2024-03-04 23:55:00,SystemResetWarning,0821.3,5.00,000.00,022.0,021.3,000.0,030.2,023.8,13.8,0000.0,0011.20,0002.21,0000.91
2024-03-04 23:56:00,SystemResetWarning,0821.3,5.01,000.00,022.0,021.3,000.0,030.2,023.7,13.8,0000.0,0011.75,0002.18,0000.96
2024-03-04 23:57:00,SystemResetWarning,0821.3,5.01,000.00,022.0,021.4,000.0,030.2,023.7,13.8,0000.0,0012.12,0002.20,0000.99
2024-03-04 23:58:00,SystemResetWarning,0821.3,5.00,000.00,022.0,021.4,000.0,030.2,023.8,13.7,0000.0,0012.83,0002.24,0001.03
2024-03-04 23:59:00,SystemResetWarning,0821.3,5.00,000.00,022.0,021.4,000.0,030.2,023.8,13.7,0000.0,0012.67,0002.24,0001.10
